| time (UTC) | temp F | wind direction | speed knots | gust knots | rain 1hr in | rain 24hr in | rain mn in | humidity % | barometer mb |
| 20260507163209 | 57 | 98 | 2.6 | 0.0 | 0.00 | 0.00 | 0.09 | 67 | 1013.5 |
| 20260507160211 | 58 | 150 | 3.5 | 0.0 | 0.00 | 0.00 | 0.09 | 66 | 1013.5 |
| 20260507153210 | 59 | 220 | 7.8 | 0.0 | 0.00 | 0.00 | 0.09 | 65 | 1013.5 |
| 20260507150210 | 59 | 113 | 6.1 | 0.0 | 0.00 | 0.00 | 0.09 | 70 | 1013.3 |
| 20260507143212 | 59 | 192 | 10.4 | 0.0 | 0.00 | 0.00 | 0.09 | 68 | 1013.3 |
| 20260507140210 | 59 | 288 | 4.3 | 0.0 | 0.00 | 0.00 | 0.09 | 66 | 1013.2 |
| 20260507133210 | 57 | 279 | 6.1 | 0.0 | 0.00 | 0.00 | 0.09 | 70 | 1013.7 |
| 20260507130210 | 56 | 296 | 4.3 | 0.0 | 0.00 | 0.00 | 0.09 | 74 | 1013.8 |
| 20260507123210 | 56 | 252 | 11.3 | 0.0 | 0.00 | 0.00 | 0.09 | 74 | 1013.7 |
| 20260507120211 | 56 | 277 | 12.2 | 0.0 | 0.00 | 0.00 | 0.09 | 75 | 1013.8 |
| 20260507113210 | 55 | 244 | 13.9 | 0.0 | 0.00 | 0.00 | 0.09 | 74 | 1013.7 |
| 20260507110210 | 53 | 269 | 15.6 | 0.0 | 0.00 | 0.00 | 0.09 | 78 | 1013.9 |
| 20260507103216 | 53 | 270 | 12.2 | 0.0 | 0.00 | 0.00 | 0.09 | 81 | 1013.9 |
| 20260507100212 | 52 | 285 | 14.8 | 0.0 | 0.00 | 0.00 | 0.09 | 85 | 1013.9 |
| 20260507093211 | 50 | 262 | 17.4 | 0.0 | 0.00 | 0.00 | 0.09 | 90 | 1013.8 |
| 20260507090211 | 48 | 264 | 10.4 | 0.0 | 0.00 | 0.00 | 0.09 | 93 | 1013.6 |
| 20260507083212 | 48 | 277 | 18.2 | 0.0 | 0.00 | 0.00 | 0.08 | 92 | 1013.4 |
| 20260507080211 | 47 | 274 | 14.8 | 0.0 | 0.00 | 0.00 | 0.08 | 93 | 1013.2 |
| 20260507073212 | 47 | 266 | 16.5 | 0.0 | 0.00 | 0.00 | 0.08 | 94 | 1013.1 |
| 20260507070212 | 46 | 250 | 13.9 | 0.0 | 0.00 | 0.00 | 0.07 | 95 | 1012.8 |
| 20260507063211 | 46 | 254 | 15.6 | 0.0 | 0.00 | 0.00 | 0.07 | 95 | 1012.6 |
| 20260507060211 | 46 | 259 | 10.4 | 0.0 | 0.00 | 0.00 | 0.06 | 94 | 1012.3 |
| 20260507053211 | 46 | 250 | 12.2 | 0.0 | 0.00 | 0.00 | 0.02 | 94 | 1012.2 |
| 20260507050213 | 46 | 266 | 13.0 | 0.0 | 0.00 | 0.00 | 0.01 | 93 | 1011.8 |
| 20260507043211 | 46 | 271 | 13.9 | 0.0 | 0.00 | 0.00 | 0.00 | 92 | 1011.5 |
| 20260507040216 | 46 | 256 | 9.6 | 0.0 | 0.00 | 0.00 | 0.00 | 92 | 1011.2 |
| 20260507033211 | 46 | 267 | 11.3 | 0.0 | 0.00 | 0.00 | 0.00 | 93 | 1011.1 |
| 20260507030211 | 45 | 247 | 9.6 | 0.0 | 0.00 | 0.00 | 0.00 | 92 | 1011.0 |
| 20260507023211 | 46 | 271 | 7.8 | 0.0 | 0.00 | 0.00 | 0.00 | 92 | 1011.0 |
| 20260507020211 | 46 | 284 | 13.9 | 0.0 | 0.00 | 0.00 | 0.00 | 91 | 1010.9 |
| 20260507013212 | 46 | 269 | 17.4 | 0.0 | 0.00 | 0.00 | 0.00 | 91 | 1010.4 |
| 20260507010211 | 46 | 294 | 14.8 | 0.0 | 0.00 | 0.00 | 0.00 | 92 | 1010.2 |
| 20260507003209 | 45 | 274 | 10.4 | 0.0 | 0.00 | 0.00 | 0.00 | 94 | 1010.2 |
| 20260507000209 | 45 | 248 | 4.3 | 0.0 | 0.00 | 0.00 | 0.00 | 93 | 1010.2 |
| 20260506233209 | 45 | 254 | 7.8 | 0.0 | 0.00 | 0.00 | 0.00 | 93 | 1010.1 |
| 20260506230209 | 45 | 266 | 8.7 | 0.0 | 0.00 | 0.00 | 0.00 | 94 | 1009.8 |
| 20260506223209 | 45 | 282 | 7.8 | 0.0 | 0.00 | 0.00 | 0.00 | 94 | 1009.9 |
| 20260506220209 | 45 | 265 | 7.8 | 0.0 | 0.00 | 0.00 | 0.00 | 94 | 1009.7 |
| 20260506213209 | 46 | 248 | 7.8 | 0.0 | 0.00 | 0.00 | 0.24 | 93 | 1009.8 |
| 20260506210210 | 46 | 249 | 8.7 | 0.0 | 0.00 | 0.00 | 0.24 | 93 | 1009.8 |
| 20260506203210 | 47 | 281 | 8.7 | 0.0 | 0.00 | 0.00 | 0.24 | 91 | 1009.6 |
| 20260506200210 | 47 | 294 | 11.3 | 0.0 | 0.00 | 0.00 | 0.24 | 91 | 1009.4 |
| 20260506193215 | 47 | 269 | 13.9 | 0.0 | 0.00 | 0.00 | 0.24 | 91 | 1009.0 |
| 20260506190211 | 47 | 284 | 13.9 | 0.0 | 0.00 | 0.00 | 0.24 | 91 | 1008.4 |
| 20260506183209 | 48 | 225 | 13.0 | 0.0 | 0.00 | 0.00 | 0.24 | 91 | 1008.1 |
| 20260506180216 | 49 | 253 | 7.8 | 0.0 | 0.00 | 0.00 | 0.24 | 92 | 1008.0 |
| 20260506173210 | 48 | 271 | 15.6 | 0.0 | 0.00 | 0.00 | 0.24 | 91 | 1007.7 |
| 20260506170215 | 49 | 256 | 13.9 | 0.0 | 0.00 | 0.00 | 0.24 | 93 | 1007.5 |